Flag for Germany Weather past 2 weeks in Wismar, Mecklenburg-Western Pomerania, Germany

Now
52 °F

Low clouds.


Feels Like: 52 °F
Forecast: 46 / 69 °F
Wind: 3 mph from East

Location: Schwerin


UV Index: 0 (Low)

Visibility: 4 mi


Pressure: 29.81 "Hg

Humidity: 96%

Dew point: 51 °F

Location of WismarLocation

Historic Weather in Wismar

°F

Wismar temperature yesterday

Maximum temperature yesterday: 68 °F (at 4:00 PM)
Minimum temperature yesterday: 46 °F (at 7:00 AM)
Average temperature yesterday: 56 °F

Past Weeks' High & Low Weather Summary

 TemperatureHumidityPressure
High68 °F (Apr 20, 4:00 PM)100% (Apr 6, 9:00 AM)30.47 "Hg (Apr 6, 9:00 AM)
Low35 °F (Apr 16, 6:00 AM)35% (Apr 17, 5:00 PM)29.65 "Hg (Apr 14, 7:00 AM)
Average49 °F77%30.01 "Hg
* Reported Apr 6 9:00 AM — Apr 21 9:00 AM, Wismar, Weather by CustomWeather, © 2014

Note: Actual official high and low records may vary slightly from our data, if they occured in-between our weather recording intervals... More about our weather records

Advertising

Historic Weather Conditions — Data for Previous 24 hours

 ConditionsComfort  
Time TempWeatherWind HumidityBarometerVisibility
9:00 AM
Apr 21
50 °FFog.5 mph98%29.81 "Hg3 mi
8:00 AM49 °FFog.3 mph98%29.81 "Hg3 mi
7:00 AM49 °FLow clouds.3 mph99%29.81 "Hg2 mi
6:00 AM48 °FLight rain. Low clouds.3 mph98%29.82 "Hg2 mi
4:00 AM48 °FLight rain. Overcast.3 mph97%29.85 "Hg2 mi
3:00 AM49 °FLight rain. Overcast.2 mph95%29.85 "Hg3 mi
2:00 AM49 °FLight rain. Overcast.3 mph87%29.88 "Hg4 mi
1:00 AM50 °FOvercast.5 mph83%29.88 "Hg11 mi
12:00 AM51 °FOvercast.3 mph82%29.90 "Hg7 mi
11:00 PM
Apr 20
52 °FOvercast.5 mph78%29.90 "Hg9 mi
10:00 PM55 °FPassing clouds.5 mph75%29.89 "Hg10 mi
9:00 PM58 °FPassing clouds.5 mph73%29.89 "Hg9 mi
8:00 PM61 °FOvercast.5 mph68%29.88 "Hg7 mi
7:00 PM64 °FPartly sunny.5 mph63%29.87 "Hg9 mi
6:00 PM67 °FScattered clouds.6 mph48%29.88 "Hg14 mi
4:00 PM68 °FPartly sunny.6 mph49%29.90 "Hg14 mi
3:00 PM67 °FPartly sunny.6 mph53%29.92 "Hg13 mi
2:00 PM65 °FOvercast.6 mph56%29.93 "Hg13 mi
1:00 PM64 °FPartly sunny.6 mph56%29.94 "Hg11 mi
12:00 PM62 °FScattered clouds.6 mph65%29.96 "Hg9 mi
11:00 AM59 °FPassing clouds.5 mph72%29.97 "Hg7 mi
10:00 AM54 °FPartly sunny.5 mph76%29.98 "Hg6 mi
Weather by CustomWeather, © 2014

See weather overview